Probability
0 0 0 0 0 0 0 0 0 0 0 0 0 0 0 0 0 0 0 3 3 6 13 16 29 39 35 35 32 35 42 32 48 45 39 42 42 42 39 42 45 45 39 42 35 23 23 19 19
0 0 0 0 0 0 0 0 0 0 0 0 0 0 0 0 0 3 3 3 3 6 13 10 26 42 35 35 32 32 35 39 42 42 42 42 42 42 42 39 42 39 32 39 29 29 23 19 19
0 0 0 0 0 0 0 0 0 0 0 0 0 0 0 0 3 3 3 3 3 10 13 10 19 39 32 32 29 29 29 32 32 39 45 45 48 48 45 42 35 32 35 39 32 29 23 16 16
0 0 0 0 0 0 0 0 0 0 0 0 0 0 0 0 3 3 3 3 3 10 13 16 19 35 29 29 29 26 23 16 23 32 35 42 42 42 39 39 35 35 32 32 26 26 16 26 19
0 0 0 0 0 0 0 0 0 0 0 0 0 0 0 3 3 3 3 6 6 6 10 10 13 26 32 32 23 26 23 19 16 23 26 29 32 42 32 39 35 32 29 26 23 23 19 16 16
0 0 0 0 0 0 0 0 0 0 0 0 0 0 3 3 3 3 6 6 6 10 10 10 13 16 23 29 26 26 19 16 19 23 29 29 29 26 29 32 35 32 26 16 16 19 23 13 13
0 0 0 0 0 0 0 0 0 0 0 0 0 0 3 3 3 3 6 6 10 10 10 10 13 10 13 16 19 26 23 23 19 26 26 26 23 19 23 29 29 29 26 23 16 19 13 10 6
0 0 0 0 0 0 0 0 0 0 0 0 0 0 0 3 3 6 10 10 10 10 10 10 13 10 13 13 13 13 13 13 13 16 16 13 13 19 19 19 19 19 23 23 13 16 6 3 3
0 0 0 0 0 0 0 0 0 0 0 0 0 0 3 3 3 3 10 10 10 10 10 10 13 10 10 10 10 10 6 10 6 3 3 6 10 13 13 0 13 16 16 19 10 6 3 0 0
0 0 0 0 0 0 0 0 0 0 0 0 0 0 3 3 3 0 0 6 6 6 6 6 13 13 10 6 13 10 13 13 16 16 13 16 10 10 6 0 0 3 3 0 0 0 0 0 0
0 0 0 0 0 0 0 0 0 0 0 0 0 0 0 0 0 0 0 0 3 6 6 6 6 13 10 13 13 10 10 10 10 10 13 16 10 10 13 6 3 3 0 0 0 0 0 0 0
0 0 0 0 0 0 0 0 0 0 0 0 0 0 0 0 0 0 0 0 3 3 3 6 6 6 10 10 10 10 10 10 10 10 10 13 13 13 6 6 10 10 6 6 0 0 0 0 0
0 0 0 0 0 0 0 0 0 0 0 0 0 0 0 0 0 0 0 0 3 3 3 6 6 6 6 6 10 6 6 6 6 6 6 6 6 6 3 6 3 3 3 3 0 0 0 0 0
0 0 0 0 0 0 0 0 0 0 0 0 0 0 0 0 0 0 0 0 3 3 6 6 6 6 6 6 6 10 6 6 6 10 3 3 6 3 0 0 0 3 3 3 0 0 0 0 0
0 0 0 0 0 0 0 0 0 0 0 0 0 0 0 0 0 0 0 0 0 0 3 3 3 6 6 6 6 6 6 6 6 6 3 3 6 6 3 3 3 0 0 0 0 0 0 0 0
0 0 0 0 0 0 0 0 0 0 0 0 0 0 0 0 0 0 0 0 0 0 0 3 3 3 6 6 6 6 6 6 6 6 3 3 3 3 3 0 0 0 3 0 0 0 0 0 0
0 0 0 0 0 0 0 0 0 0 0 0 0 0 0 0 0 0 0 0 0 0 0 3 3 3 3 6 6 6 6 6 6 3 3 3 3 0 0 0 0 0 0 0 0 0 0 0 0
0 0 0 0 0 0 0 0 0 0 0 0 0 0 0 0 0 0 0 0 0 0 0 0 3 3 3 3 3 6 6 6 3 3 3 0 0 0 0 0 0 0 0 0 0 0 0 0 0
0 0 0 0 0 0 0 0 0 0 0 0 0 0 0 0 0 0 0 0 0 0 0 0 0 3 3 3 3 3 6 3 3 3 0 0 0 0 0 0 0 0 0 0 0 0 0 0 0
0 0 0 0 0 0 0 0 0 0 0 0 0 0 0 0 0 0 0 0 0 0 0 0 0 0 3 3 3 3 3 6 3 3 3 0 0 0 0 0 0 0 0 0 0 0 0 0 0
0 0 0 0 0 0 0 0 0 0 0 0 0 0 0 0 0 0 0 0 0 0 0 0 0 0 3 3 3 3 3 3 0 0 3 0 0 0 0 0 0 0 0 0 0 0 0 0 0
0 0 0 0 0 0 0 0 0 0 0 0 0 0 0 0 0 0 0 0 0 0 0 0 0 0 0 3 3 3 3 0 0 0 0 0 0 0 0 0 0 0 0 0 0 0 0 0 0
0 0 0 0 0 0 0 0 0 0 0 0 0 0 0 0 0 0 0 0 0 0 0 0 0 0 0 3 3 3 3 3 0 0 0 0 0 0 0 0 0 0 0 0 0 0 0 0 0
0 0 0 0 0 0 0 0 0 0 0 0 0 0 0 0 0 0 0 0 0 0 0 0 0 0 0 0 0 3 3 3 0 0 0 0 0 0 0 0 0 0 0 0 0 0 0 0 0
0 0 0 0 0 0 0 0 0 0 0 0 0 0 0 0 0 0 0 0 0 0 0 0 0 0 0 0 0 3 3 3 0 0 0 0 0 0 0 0 0 0 0 0 0 0 0 0 0
0 0 0 0 0 0 0 0 0 0 0 0 0 0 0 0 0 0 0 0 0 0 0 0 0 0 0 0 0 0 3 0 0 0 0 0 0 0 0 0 0 0 0 0 0 0 0 0 0
0 0 0 0 0 0 0 0 0 0 0 0 0 0 0 0 0 0 0 0 0 0 0 0 0 0 0 0 0 0 0 0 0 0 0 0 0 0 0 0 0 0 0 0 0 0 0 0 0
0 0 0 0 0 0 0 0 0 0 0 0 0 0 0 0 0 0 0 0 0 0 0 0 0 0 0 0 0 0 0 0 0 0 0 0 0 0 0 0 0 0 0 0 0 0 0 0 0
0 0 0 0 0 0 0 0 0 0 0 0 0 0 0 0 0 0 0 0 0 0 0 0 0 0 0 0 0 0 0 0 0 0 0 0 0 0 0 0 0 0 0 0 0 0 0 0 0
0 0 0 0 0 0 0 0 0 0 0 0 0 0 0 0 0 0 0 0 0 0 0 0 0 0 0 0 0 0 0 0 0 0 0 0 0 0 0 0 0 0 0 0 0 0 0 0 0
Height
5829 5830 5831 5832 5833 5833 5833 5834 5834 5835 5835 5835 5835 5836 5836 5837 5838 5840 5839 5838 5838 5838 5839 5839 5839 5840 5840 5840 5841 5841 5841 5842 5842 5842 5842 5843 5843 5843 5844 5844 5844 5845 5845 5845 5846 5846 5846 5846 5847
5825 5826 5828 5828 5829 5829 5830 5830 5831 5831 5831 5831 5832 5832 5832 5833 5833 5834 5834 5834 5834 5835 5835 5836 5836 5837 5837 5837 5838 5838 5838 5839 5839 5839 5840 5840 5841 5841 5841 5842 5842 5843 5843 5843 5844 5844 5845 5845 5845
5822 5822 5824 5824 5825 5826 5826 5826 5827 5826 5827 5827 5827 5827 5828 5829 5829 5829 5830 5830 5830 5831 5831 5832 5832 5833 5833 5834 5834 5835 5835 5836 5836 5837 5837 5837 5838 5838 5838 5839 5840 5840 5841 5841 5842 5842 5843 5843 5844
5818 5819 5820 5820 5820 5821 5822 5822 5822 5822 5822 5822 5823 5823 5823 5824 5824 5824 5825 5825 5826 5826 5827 5828 5828 5829 5830 5830 5831 5831 5832 5832 5833 5833 5834 5834 5834 5835 5835 5836 5837 5837 5838 5839 5839 5840 5840 5841 5842
5814 5815 5815 5815 5816 5817 5817 5817 5817 5817 5817 5818 5818 5818 5818 5819 5818 5819 5819 5820 5821 5821 5822 5823 5824 5824 5825 5826 5826 5827 5828 5828 5829 5829 5830 5831 5831 5831 5832 5833 5833 5834 5835 5836 5836 5837 5838 5839 5839
5810 5810 5811 5811 5811 5812 5812 5812 5812 5812 5812 5812 5812 5812 5813 5813 5813 5813 5814 5814 5815 5816 5817 5818 5818 5819 5820 5821 5822 5822 5823 5824 5824 5825 5825 5826 5827 5828 5828 5829 5830 5831 5831 5832 5833 5834 5835 5836 5837
5806 5806 5805 5806 5806 5807 5806 5806 5806 5806 5806 5806 5806 5806 5806 5806 5806 5807 5808 5808 5809 5810 5811 5812 5813 5814 5814 5815 5816 5817 5818 5818 5819 5820 5820 5821 5822 5823 5824 5825 5825 5826 5827 5828 5829 5830 5832 5832 5833
5800 5801 5800 5801 5801 5801 5800 5800 5800 5800 5800 5800 5800 5800 5800 5800 5800 5800 5801 5802 5803 5803 5804 5805 5806 5807 5808 5809 5810 5811 5812 5813 5813 5814 5815 5816 5817 5818 5819 5820 5820 5821 5822 5824 5825 5826 5828 5829 5830
5794 5795 5795 5795 5795 5795 5794 5793 5794 5793 5793 5793 5793 5793 5793 5793 5793 5794 5794 5795 5796 5797 5798 5799 5800 5801 5802 5803 5804 5804 5805 5806 5807 5808 5808 5809 5810 5811 5813 5814 5815 5816 5817 5818 5820 5822 5823 5824 5825
5788 5788 5789 5788 5788 5787 5787 5786 5786 5786 5786 5786 5785 5785 5785 5786 5786 5787 5788 5788 5789 5790 5791 5792 5793 5794 5795 5796 5796 5797 5798 5799 5800 5801 5801 5802 5803 5805 5806 5808 5809 5810 5811 5813 5814 5816 5817 5819 5821
5781 5782 5782 5781 5780 5780 5779 5779 5779 5779 5779 5778 5778 5778 5778 5778 5779 5779 5780 5781 5782 5783 5783 5784 5785 5786 5787 5788 5789 5790 5791 5792 5792 5793 5794 5795 5796 5797 5799 5801 5802 5804 5805 5806 5808 5809 5811 5813 5815
5774 5774 5773 5773 5772 5772 5771 5771 5771 5771 5771 5770 5769 5769 5769 5770 5771 5771 5772 5773 5774 5775 5776 5777 5778 5778 5779 5780 5782 5783 5783 5784 5784 5785 5786 5787 5788 5789 5791 5793 5795 5796 5797 5799 5800 5802 5804 5806 5809
5765 5765 5764 5764 5763 5763 5762 5762 5762 5762 5761 5760 5760 5760 5761 5762 5762 5763 5764 5765 5766 5767 5768 5769 5770 5771 5771 5772 5773 5774 5775 5776 5776 5777 5778 5778 5780 5781 5783 5784 5786 5788 5790 5791 5793 5795 5797 5799 5802
5756 5755 5755 5754 5753 5753 5752 5752 5752 5753 5751 5751 5751 5752 5752 5753 5754 5754 5755 5756 5757 5758 5759 5760 5761 5762 5763 5763 5764 5765 5766 5767 5768 5768 5769 5770 5771 5772 5774 5775 5778 5780 5782 5783 5785 5787 5789 5792 5794
5746 5746 5746 5744 5743 5742 5742 5743 5743 5743 5742 5742 5742 5742 5743 5744 5744 5745 5746 5747 5748 5749 5750 5751 5752 5753 5754 5755 5755 5756 5757 5757 5758 5759 5760 5761 5762 5763 5765 5766 5769 5771 5773 5775 5777 5779 5781 5784 5787
5737 5736 5736 5735 5733 5732 5733 5733 5733 5732 5732 5732 5732 5732 5733 5734 5735 5736 5736 5737 5738 5739 5740 5741 5742 5743 5744 5745 5746 5746 5747 5748 5748 5749 5750 5752 5753 5754 5755 5757 5759 5761 5764 5766 5768 5770 5773 5776 5779
5727 5727 5726 5725 5724 5722 5722 5722 5722 5721 5721 5721 5721 5721 5722 5723 5724 5725 5726 5727 5727 5729 5730 5731 5732 5733 5734 5735 5736 5736 5737 5737 5738 5739 5740 5742 5743 5744 5746 5747 5750 5752 5754 5757 5759 5761 5764 5767 5770
5718 5717 5715 5714 5713 5712 5711 5711 5711 5710 5710 5710 5710 5710 5710 5712 5713 5713 5714 5715 5716 5717 5719 5720 5721 5722 5723 5724 5725 5726 5726 5727 5727 5728 5730 5731 5732 5734 5736 5738 5740 5742 5745 5747 5750 5752 5755 5758 5762
5707 5706 5705 5704 5703 5701 5700 5700 5700 5699 5698 5698 5697 5697 5698 5699 5700 5701 5702 5703 5704 5706 5707 5709 5710 5711 5712 5713 5714 5715 5716 5716 5717 5718 5719 5720 5721 5723 5725 5727 5730 5733 5735 5737 5740 5743 5746 5749 5752
5697 5696 5694 5694 5692 5690 5690 5690 5688 5687 5686 5685 5685 5685 5685 5686 5687 5688 5689 5691 5692 5694 5695 5697 5698 5698 5699 5701 5702 5703 5704 5705 5706 5706 5707 5708 5710 5712 5714 5716 5719 5722 5725 5727 5730 5733 5736 5740 5743
5687 5685 5684 5683 5681 5680 5679 5679 5678 5677 5675 5673 5673 5672 5672 5673 5674 5676 5677 5678 5680 5681 5683 5684 5685 5686 5687 5688 5690 5691 5692 5693 5694 5695 5696 5697 5699 5701 5703 5705 5708 5711 5714 5717 5720 5723 5727 5730 5733
5677 5675 5674 5672 5670 5669 5668 5666 5667 5666 5664 5662 5661 5660 5660 5660 5661 5662 5664 5666 5667 5669 5670 5671 5672 5673 5674 5675 5677 5678 5679 5681 5682 5683 5685 5686 5688 5690 5692 5695 5697 5700 5703 5706 5710 5713 5716 5719 5722
5666 5665 5663 5662 5660 5658 5657 5654 5655 5653 5652 5651 5649 5648 5647 5647 5648 5649 5651 5652 5654 5655 5656 5657 5658 5659 5661 5662 5663 5665 5667 5668 5670 5671 5673 5675 5677 5679 5681 5684 5687 5690 5692 5695 5698 5702 5705 5708 5712
5656 5655 5653 5651 5649 5648 5647 5644 5643 5642 5641 5639 5637 5636 5634 5634 5634 5635 5637 5638 5640 5641 5642 5643 5645 5646 5647 5648 5649 5651 5654 5655 5657 5659 5661 5663 5665 5668 5670 5672 5675 5678 5681 5684 5687 5691 5694 5697 5700
5647 5645 5642 5639 5638 5637 5636 5633 5632 5631 5629 5626 5625 5623 5622 5621 5621 5622 5623 5624 5626 5627 5628 5629 5631 5632 5633 5634 5636 5638 5640 5642 5644 5646 5648 5651 5653 5656 5658 5661 5664 5666 5669 5672 5676 5679 5683 5686 5689
5637 5635 5633 5630 5628 5626 5625 5622 5622 5620 5617 5615 5613 5611 5609 5608 5608 5608 5609 5610 5611 5613 5614 5615 5616 5618 5619 5620 5622 5624 5626 5629 5631 5634 5636 5638 5641 5643 5646 5649 5651 5655 5657 5660 5663 5667 5671 5674 5677
5626 5625 5623 5620 5617 5615 5613 5612 5611 5608 5606 5604 5601 5598 5597 5596 5595 5595 5595 5596 5597 5598 5600 5601 5602 5603 5605 5606 5608 5610 5613 5615 5618 5620 5623 5625 5628 5631 5633 5636 5639 5642 5645 5648 5651 5654 5658 5661 5664
5617 5615 5613 5610 5607 5604 5603 5602 5600 5597 5595 5592 5589 5587 5585 5584 5583 5582 5582 5582 5583 5583 5584 5585 5586 5588 5590 5592 5594 5596 5599 5601 5604 5607 5609 5612 5615 5618 5620 5623 5626 5629 5632 5635 5638 5641 5644 5648 5651
5608 5606 5603 5600 5598 5595 5592 5594 5590 5587 5583 5581 5578 5576 5574 5572 5571 5570 5569 5569 5569 5569 5569 5570 5571 5573 5575 5577 5580 5582 5585 5587 5590 5593 5596 5599 5601 5604 5607 5610 5613 5616 5619 5622 5625 5628 5631 5634 5637
5598 5596 5594 5592 5589 5586 5583 5585 5580 5576 5572 5570 5567 5565 5562 5561 5559 5558 5557 5556 5556 5555 5556 5556 5557 5559 5561 5563 5566 5568 5571 5573 5576 5579 5582 5585 5588 5590 5593 5596 5599 5603 5606 5608 5611 5614 5617 5621 5624
Wind_Speed
16 16 17 17 18 17 16 15 15 15 15 15 15 16 16 16 16 16 15 15 15 15 15 15 14 14 13 13 13 13 13 14 14 13 12 11 11 11 11 10 9 9 8 8 7 7 7 6 6
17 17 18 18 18 18 17 17 17 16 16 16 16 17 17 17 17 17 17 17 17 17 17 17 17 16 15 14 14 14 14 14 15 14 13 13 12 13 12 12 11 10 10 10 9 8 8 8 7
17 17 18 18 18 17 17 17 18 18 18 17 17 18 18 18 18 19 19 19 19 19 18 18 18 18 17 16 15 16 16 16 16 15 15 14 14 14 14 14 13 12 12 11 11 10 10 9 9
18 19 19 19 19 18 18 18 19 19 19 19 19 19 19 20 20 20 20 20 20 20 20 20 20 19 19 18 17 17 17 17 17 17 16 16 15 15 15 15 15 14 14 14 13 12 12 11 11
19 20 20 20 19 19 19 20 20 20 20 20 20 21 21 21 21 21 22 22 21 21 21 21 21 21 20 20 19 19 19 19 19 19 19 18 17 17 17 16 16 16 16 15 15 14 14 13 12
20 21 21 20 19 20 20 21 21 21 21 22 22 22 22 23 23 23 23 23 23 23 23 23 22 22 22 22 21 21 21 21 21 21 21 20 19 19 18 18 18 17 17 17 17 16 16 15 14
21 22 21 20 20 21 21 22 22 22 23 23 23 24 24 25 25 25 25 25 25 25 25 24 24 24 24 23 22 22 23 23 23 22 22 22 21 21 20 20 20 19 19 18 18 18 18 17 17
23 23 22 21 21 22 23 24 24 24 24 25 25 25 25 26 27 27 26 26 26 26 26 26 26 26 25 25 24 24 24 24 24 24 24 24 23 23 22 22 21 21 20 20 20 20 19 19 19
24 24 23 23 24 24 25 26 26 26 26 27 27 27 27 28 28 28 28 28 27 27 27 27 27 27 27 27 27 26 25 25 26 26 26 27 26 25 25 24 23 23 23 22 22 22 21 20 20
26 26 25 25 26 27 27 27 27 27 28 29 29 29 29 29 29 30 29 29 29 29 29 29 29 29 29 29 29 28 27 27 27 27 28 28 29 28 27 27 26 26 26 25 25 24 24 23 22
28 28 28 28 28 29 29 29 29 29 30 30 30 30 30 30 30 31 31 31 31 30 30 30 30 31 31 31 30 30 30 29 29 29 30 29 29 30 30 29 29 28 28 28 27 26 26 26 25
29 29 30 30 31 31 31 31 31 31 31 32 31 31 31 31 31 31 32 32 32 32 32 32 32 32 32 33 32 32 32 32 32 31 31 32 31 31 31 32 32 31 31 30 29 29 29 28 27
31 31 31 32 33 33 33 33 33 33 33 33 32 32 32 32 32 33 33 33 33 33 33 33 33 33 33 34 35 34 33 33 33 33 33 33 33 33 33 33 33 32 32 32 32 31 30 30 29
33 33 33 34 34 34 35 34 34 33 34 34 33 33 33 34 34 34 34 34 34 34 34 35 34 34 34 35 36 36 35 35 35 35 34 34 35 34 34 34 34 34 34 34 34 34 33 32 31
34 34 35 35 35 35 36 35 35 35 35 36 36 35 35 35 35 35 35 36 36 36 35 36 36 36 36 36 36 37 38 38 37 37 36 36 36 36 35 35 35 36 36 36 36 35 35 34 34
34 35 35 35 36 36 37 36 36 36 37 37 37 37 37 37 37 38 38 38 38 37 37 37 38 38 37 38 37 38 38 39 39 38 38 38 37 37 37 37 37 37 37 37 37 37 37 36 36
34 35 35 35 36 36 37 37 37 38 38 38 39 39 39 39 40 40 40 40 40 39 39 39 39 39 39 39 38 37 37 38 39 39 39 39 39 38 38 39 39 39 38 38 38 38 38 38 37
35 35 36 36 36 37 37 37 38 39 39 39 40 41 41 41 41 41 41 41 41 41 41 40 40 41 41 41 40 40 39 38 39 40 40 40 40 40 40 40 39 39 39 39 39 39 39 39 39
35 36 36 36 36 37 36 37 38 39 39 40 41 42 42 42 42 42 43 43 43 43 42 42 42 41 42 42 41 41 41 40 40 41 41 41 42 42 42 41 41 40 40 41 40 40 41 41 40
35 36 35 36 37 37 37 36 38 39 39 40 41 42 43 43 43 43 43 44 44 44 43 43 43 43 43 43 43 43 42 42 41 42 43 43 43 43 43 43 43 42 42 42 42 41 41 41 41
35 35 36 36 37 38 39 38 37 38 38 39 40 41 43 43 43 43 43 44 45 44 44 44 44 45 44 44 44 45 44 44 43 43 43 43 43 43 43 43 43 43 42 42 42 42 42 43 43
35 36 36 37 37 38 39 40 37 38 38 39 39 40 42 43 44 44 44 45 45 45 44 44 45 46 46 46 46 46 46 45 44 44 43 42 43 43 43 44 43 43 43 43 43 43 42 43 43
35 36 36 36 37 38 38 40 39 38 38 39 39 40 41 43 44 44 45 45 46 46 45 45 46 46 46 47 46 46 46 46 45 44 44 43 43 44 45 45 44 44 44 44 43 43 43 43 43
35 36 36 37 37 38 37 39 40 39 39 39 40 40 40 42 43 44 44 45 46 46 46 46 46 47 47 47 47 47 47 46 46 46 45 44 44 44 45 45 45 45 45 45 45 45 45 44 43
35 35 36 38 38 39 38 39 40 39 38 39 39 40 40 41 42 44 44 45 46 46 46 46 47 47 47 47 48 48 47 47 46 46 45 45 44 44 45 45 45 46 46 47 46 46 45 45 45
34 35 35 38 39 39 38 39 39 39 39 39 39 39 40 40 42 43 44 44 45 45 45 46 46 47 47 48 48 48 48 48 47 46 46 46 46 45 45 45 45 46 46 47 47 47 47 46 46
34 34 35 36 38 39 39 39 39 38 38 39 39 39 39 40 41 42 43 44 45 45 45 46 47 47 47 48 48 48 49 49 49 48 48 47 47 46 45 46 46 46 47 47 47 48 48 48 47
33 33 34 34 36 38 38 38 38 38 38 38 38 38 39 40 40 41 42 43 44 45 45 46 47 48 48 48 49 49 49 50 50 49 49 48 48 47 46 47 47 47 47 48 48 48 49 50 49
32 32 33 34 35 36 38 38 38 38 38 39 38 38 38 39 40 40 40 41 42 43 44 45 46 46 47 48 48 49 49 49 50 49 48 48 48 48 48 47 48 48 48 48 49 50 49 50 50
32 32 32 33 35 35 38 39 37 38 38 39 39 38 38 39 39 39 39 40 40 41 42 43 44 44 45 46 47 48 49 49 50 50 49 49 49 50 49 49 49 49 49 49 50 50 50 51 51
Wind_Direction
246 247 250 252 255 256 257 256 257 257 255 253 252 251 251 251 251 252 253 252 251 249 248 249 251 252 254 254 253 252 252 250 248 245 244 243 243 243 243 240 239 239 237 236 235 236 236 232 229
246 249 251 253 255 256 255 255 256 255 255 253 252 251 251 252 253 253 253 252 252 251 250 250 251 252 253 253 253 252 251 250 249 247 246 245 245 244 244 243 239 238 238 239 240 239 240 238 234
248 251 253 254 255 255 254 255 255 256 255 254 253 253 253 253 254 254 254 254 253 252 251 250 251 253 253 253 252 252 251 250 250 248 247 247 246 246 246 245 240 238 240 241 242 242 242 241 238
251 255 257 258 256 254 255 256 257 257 256 256 255 254 255 255 256 255 254 253 252 252 251 251 251 252 253 254 253 252 252 251 251 251 250 249 249 248 246 246 244 239 239 241 242 242 242 241 239
254 256 258 258 257 257 256 256 257 257 258 257 257 256 257 258 257 256 254 253 253 252 251 251 251 251 253 254 255 254 253 253 253 253 252 252 252 249 246 246 245 242 240 240 241 242 241 241 240
257 259 260 260 261 260 259 259 259 258 259 259 259 259 258 258 257 256 254 253 253 253 252 251 252 253 253 254 255 256 255 255 255 254 253 253 252 251 249 248 247 245 242 241 242 242 242 242 242
259 260 262 262 262 261 260 260 261 261 260 260 260 260 260 259 257 256 255 254 254 253 252 251 252 254 254 253 254 255 256 256 255 255 254 253 253 252 251 249 247 246 246 244 243 243 243 244 244
260 261 261 263 262 262 261 261 262 262 262 261 261 262 260 258 256 256 255 255 254 253 253 253 252 253 254 254 254 254 255 256 257 256 256 254 255 253 250 248 247 247 247 247 245 245 244 244 244
261 260 262 263 263 263 262 262 262 261 262 262 263 263 261 258 257 256 255 255 254 253 253 253 253 254 255 255 255 254 254 255 257 257 257 256 256 254 251 250 250 249 247 247 245 244 245 244 245
262 262 263 263 263 264 263 263 262 263 264 264 265 264 261 259 257 256 255 255 254 254 254 254 253 254 254 255 255 255 255 257 257 257 258 258 256 254 253 252 252 251 249 248 246 244 244 245 246
264 264 264 264 264 264 264 264 264 264 265 265 265 264 261 259 258 257 255 255 254 254 254 255 254 253 253 253 254 256 257 256 256 257 258 258 256 254 253 252 252 252 251 249 246 245 244 244 245
266 266 265 265 265 265 265 265 264 264 265 265 264 262 260 259 259 258 257 256 255 254 255 255 256 255 253 253 254 255 255 255 255 255 257 256 255 254 253 253 253 253 251 249 248 246 245 244 244
268 267 267 267 267 267 266 264 264 264 265 265 264 262 260 259 258 258 258 256 255 254 255 256 256 255 255 255 254 254 255 255 255 255 255 256 255 254 254 254 252 251 251 250 248 246 245 244 244
268 267 267 268 268 267 266 264 264 264 265 265 264 262 260 259 258 258 258 258 257 255 255 256 256 256 256 256 255 255 255 255 256 255 255 256 255 253 253 251 251 251 251 250 249 248 246 245 244
270 269 269 269 269 268 267 265 265 265 265 265 264 262 260 259 259 259 258 258 258 257 257 257 257 257 257 257 258 256 256 255 256 256 255 255 255 255 253 249 249 249 249 249 249 249 248 245 244
271 271 271 271 270 270 269 267 267 266 265 264 264 262 260 259 259 258 258 259 259 259 258 258 257 257 258 258 258 257 256 256 255 255 255 255 256 255 253 250 250 248 248 248 249 249 248 246 244
273 273 273 272 272 272 271 269 268 267 265 264 264 263 261 260 259 258 259 259 259 259 258 259 258 257 257 258 258 258 257 256 256 255 255 255 255 254 252 250 249 247 247 248 249 248 247 246 245
274 274 273 273 273 273 272 270 269 268 266 265 264 263 262 261 260 259 258 259 259 259 259 259 259 258 257 257 258 258 258 257 257 256 255 255 255 254 252 250 248 248 248 248 247 247 246 246 246
274 274 273 273 274 274 273 272 270 270 268 266 265 264 262 261 260 259 258 258 259 259 259 260 260 259 257 257 258 258 258 259 258 257 257 255 254 253 252 249 248 248 248 247 246 245 245 246 246
274 273 273 273 274 274 274 273 272 271 269 268 266 265 263 262 260 259 259 259 259 260 260 260 260 260 258 257 258 258 259 259 258 257 256 255 254 253 250 248 248 248 247 247 245 245 245 246 247
273 273 274 275 275 274 274 274 273 273 271 270 269 267 264 262 260 260 260 259 259 260 261 260 260 260 260 258 258 258 258 259 258 257 256 255 253 252 250 248 248 248 247 246 245 245 245 245 246
273 273 274 275 275 275 275 276 274 275 273 272 271 269 266 263 262 261 260 260 260 260 261 261 261 261 260 259 257 257 258 258 258 256 256 254 253 252 250 249 248 248 246 245 245 246 246 246 246
274 274 274 275 276 276 276 278 278 276 275 273 273 272 269 266 264 262 261 260 260 260 261 261 260 260 260 259 257 257 256 257 257 255 254 253 253 252 251 249 249 247 247 246 247 246 247 246 246
275 275 275 276 277 278 279 280 279 277 277 276 276 274 272 269 265 263 262 261 260 260 261 260 260 259 259 259 258 256 255 256 256 254 253 252 252 252 251 249 248 247 248 247 247 247 247 247 248
276 277 278 279 279 280 280 280 280 279 279 279 278 277 275 271 267 264 263 262 260 260 260 260 259 259 259 259 258 256 255 254 254 254 252 251 251 252 251 249 248 248 247 247 247 246 247 248 249
278 278 279 281 282 282 282 282 282 282 280 280 280 278 276 273 270 267 264 262 261 260 259 259 259 258 259 258 257 255 254 253 253 252 251 251 251 251 251 249 248 248 247 247 247 246 246 248 248
278 278 280 281 281 282 283 283 282 282 281 281 280 278 277 274 272 269 266 264 262 261 260 260 259 258 258 257 257 255 254 252 252 251 251 250 250 250 250 249 248 248 248 248 247 247 246 247 247
278 280 281 282 283 284 284 285 285 284 283 282 282 279 277 275 273 270 267 264 263 261 261 260 259 258 257 257 256 255 254 253 252 252 251 250 250 250 250 249 248 247 247 248 248 247 247 247 247
278 279 280 282 282 284 286 286 287 286 285 283 283 280 278 276 274 271 268 266 265 263 261 260 259 258 256 256 255 255 254 253 252 251 251 250 250 250 249 249 248 247 247 248 248 248 248 247 247
279 279 281 282 283 284 287 288 288 287 286 284 283 281 279 277 275 272 268 267 267 264 262 261 259 257 256 255 255 254 253 252 251 251 251 251 250 250 250 249 248 248 248 248 249 249 248 248 248